GW5344 Weather Reports


time (UTC)temp
C
wind
direction
speed
KPH
gust
KPH
rain 1hr
cm
rain 24hr
cm
rain mn
cm
humidity
%
barometer
mb
20260510011516 16 272 0.0 3.2 0.00 0.38 0.33 62 1007.2
20260510011008 16 268 1.6 4.8 0.00 0.38 0.33 62 1007.2
20260510010505 16 187 1.6 4.8 0.00 0.38 0.33 62 1007.1
20260510010023 16 288 1.6 4.8 0.00 0.41 0.33 61 1007.1
20260510005509 16 289 0.0 3.2 0.00 0.41 0.33 61 1007.1
20260510005007 16 291 0.0 4.8 0.00 0.41 0.33 61 1007.1
20260510004525 16 232 1.6 4.8 0.00 0.41 0.33 60 1007.1
20260510004009 16 308 1.6 4.8 0.00 0.41 0.33 60 1007.0
20260510003503 16 274 3.2 6.4 0.00 0.41 0.33 59 1007.0
20260510003010 17 289 1.6 6.4 0.00 0.41 0.33 59 1007.0
20260510002505 17 253 3.2 9.7 0.00 0.41 0.33 58 1006.9
20260510002007 17 280 3.2 9.7 0.00 0.41 0.33 58 1006.9
20260510001514 17 231 3.2 6.4 0.00 0.41 0.33 58 1007.0
20260510001006 17 279 3.2 9.7 0.00 0.41 0.33 58 1006.9
20260510000505 17 135 3.2 9.7 0.00 0.41 0.33 57 1006.7
20260510000020 17 280 1.6 6.4 0.00 0.41 0.33 58 1006.6
20260509235505 17 307 1.6 4.8 0.00 0.41 0.33 57 1006.6
20260509235011 17 269 1.6 6.4 0.00 0.41 0.33 57 1006.6
20260509234536 17 170 3.2 11.3 0.00 0.41 0.33 56 1006.6
20260509234010 17 182 3.2 11.3 0.00 0.41 0.33 56 1006.5
20260509233507 17 295 1.6 8.0 0.00 0.41 0.33 56 1006.5
20260509233027 18 121 1.6 11.3 0.00 0.41 0.33 56 1006.5
20260509232503 18 274 3.2 11.3 0.00 0.41 0.33 55 1006.5
20260509232012 18 330 1.6 14.5 0.00 0.41 0.33 55 1006.6
20260509231516 18 251 3.2 14.5 0.00 0.41 0.33 55 1006.5
20260509231006 18 316 4.8 11.3 0.00 0.41 0.33 56 1006.3
20260509230506 18 284 4.8 11.3 0.00 0.41 0.33 55 1006.3
20260509230018 18 293 4.8 14.5 0.00 0.41 0.33 55 1006.1
20260509225506 18 232 6.4 16.1 0.00 0.41 0.33 56 1006.1
20260509225009 18 257 4.8 22.5 0.00 0.41 0.33 56 1006.1
20260509224533 18 268 6.4 22.5 0.00 0.41 0.33 55 1006.1
20260509224010 18 193 4.8 16.1 0.00 0.41 0.33 55 1006.1
20260509223515 18 284 6.4 17.7 0.00 0.41 0.33 55 1006.1
20260509223026 18 132 4.8 17.7 0.00 0.41 0.33 56 1006.2
20260509222509 18 214 4.8 17.7 0.00 0.41 0.33 56 1006.0
20260509222009 18 291 4.8 17.7 0.00 0.41 0.33 55 1006.1
20260509221510 18 277 4.8 12.9 0.00 0.41 0.33 55 1006.3
20260509221006 18 140 3.2 11.3 0.00 0.41 0.33 55 1006.4
20260509220510 19 148 4.8 16.1 0.00 0.41 0.33 55 1006.5
20260509220015 19 280 4.8 12.9 0.00 0.41 0.33 55 1006.6
20260509215512 19 252 4.8 12.9 0.00 0.41 0.33 55 1006.7
20260509215006 19 255 1.6 17.7 0.00 0.41 0.33 56 1006.7
20260509214523 18 282 4.8 17.7 0.00 0.41 0.33 56 1006.6
20260509214006 18 251 3.2 12.9 0.00 0.41 0.33 57 1006.5
20260509213509 18 277 4.8 12.9 0.00 0.41 0.33 56 1006.6
20260509213025 18 223 1.6 11.3 0.00 0.41 0.33 57 1006.6
20260509212509 18 347 3.2 12.9 0.00 0.41 0.33 57 1006.7
20260509212011 19 191 4.8 12.9 0.00 0.41 0.33 56 1006.8
20260509211527 19 273 3.2 12.9 0.00 0.41 0.33 55 1006.8
20260509211011 19 215 3.2 12.9 0.00 0.41 0.33 56 1006.8
20260509210504 19 356 3.2 8.0 0.00 0.41 0.33 57 1006.7
20260509210012 19 213 3.2 11.3 0.00 0.41 0.33 57 1006.8
20260509205506 19 27 4.8 11.3 0.00 0.41 0.33 57 1006.8
20260509205008 19 258 4.8 11.3 0.00 0.41 0.33 57 1007.0
20260509204517 19 267 3.2 11.3 0.00 0.41 0.33 59 1007.1
20260509204009 18 299 3.2 11.3 0.00 0.41 0.33 60 1007.2
20260509203509 18 223 4.8 16.1 0.00 0.41 0.33 59 1007.2
20260509203026 18 191 3.2 16.1 0.00 0.41 0.33 58 1007.0
20260509202507 18 245 3.2 16.1 0.00 0.41 0.33 61 1007.2
20260509202013 18 308 3.2 16.1 0.00 0.41 0.33 61 1007.3
20260509201528 17 1 3.2 16.1 0.00 0.41 0.33 62 1007.3
20260509201011 18 245 3.2 16.1 0.00 0.41 0.33 61 1007.3
20260509200510 17 305 4.8 16.1 0.00 0.41 0.33 63 1007.4
20260509200026 17 221 3.2 16.1 0.00 0.41 0.33 63 1007.5
20260509195513 17 311 4.8 17.7 0.00 0.41 0.33 61 1007.5
20260509195006 17 162 3.2 17.7 0.00 0.41 0.33 62 1007.6
20260509194514 17 118 1.6 11.3 0.00 0.41 0.33 64 1007.6
20260509194008 17 246 3.2 14.5 0.00 0.41 0.33 63 1007.7
20260509193508 17 272 3.2 14.5 0.00 0.41 0.33 64 1007.7
20260509193024 17 280 1.6 11.3 0.00 0.41 0.33 65 1007.8
20260509192508 17 184 4.8 19.3 0.00 0.41 0.33 65 1007.7
20260509192007 17 264 6.4 24.1 0.00 0.41 0.33 63 1007.8
20260509191506 17 218 8.0 24.1 0.00 0.41 0.33 65 1007.9
20260509191004 17 229 3.2 14.5 0.00 0.41 0.33 65 1008.0
20260509190505 17 354 4.8 14.5 0.00 0.41 0.33 65 1008.0
20260509190009 17 224 6.4 14.5 0.00 0.41 0.33 65 1008.1
20260509185504 17 282 6.4 24.1 0.00 0.41 0.33 64 1008.1
20260509185005 17 308 4.8 24.1 0.00 0.41 0.33 66 1008.2
20260509184515 17 282 4.8 9.7 0.00 0.41 0.33 68 1008.3
20260509184004 16 300 4.8 9.7 0.00 0.41 0.33 66 1008.3
20260509183504 17 310 3.2 17.7 0.00 0.41 0.33 67 1008.3
20260509183006 17 141 3.2 17.7 0.00 0.41 0.33 69 1008.3
20260509182504 17 281 1.6 12.9 0.00 0.41 0.33 70 1008.4
20260509182003 16 315 6.4 12.9 0.00 0.41 0.33 70 1008.5
20260509181504 17 297 3.2 12.9 0.00 0.41 0.33 68 1008.5
20260509181007 17 282 4.8 12.9 0.00 0.41 0.33 70 1008.6
20260509180507 16 268 1.6 6.4 0.00 0.41 0.33 73 1008.6
20260509180007 16 218 3.2 8.0 0.00 0.41 0.33 74 1008.6
20260509175504 15 270 3.2 11.3 0.00 0.41 0.33 73 1008.6
20260509175004 15 195 1.6 11.3 0.00 0.41 0.33 75 1008.6
20260509174507 15 155 1.6 9.7 0.00 0.41 0.33 75 1008.6
20260509174004 15 280 1.6 11.3 0.00 0.41 0.33 75 1008.6
20260509173508 15 192 4.8 16.1 0.00 0.41 0.33 76 1008.6
20260509173008 15 310 3.2 16.1 0.00 0.41 0.33 74 1008.6
20260509172508 15 274 3.2 11.3 0.00 0.41 0.33 75 1008.6
20260509172004 15 284 3.2 11.3 0.00 0.41 0.33 75 1008.5
20260509171503 15 253 4.8 11.3 0.00 0.41 0.33 75 1008.4
20260509171004 15 292 4.8 9.7 0.00 0.41 0.33 76 1008.4
20260509170507 15 197 1.6 11.3 0.00 0.41 0.33 78 1008.4
20260509170006 15 185 3.2 11.3 0.00 0.41 0.33 77 1008.4
20260509165505 15 356 3.2 6.4 0.00 0.41 0.33 77 1008.3
20260509165006 15 189 3.2 8.0 0.00 0.41 0.33 77 1008.3
20260509164508 15 284 1.6 12.9 0.00 0.41 0.33 78 1008.3
20260509164006 15 295 1.6 12.9 0.00 0.41 0.33 80 1008.3
20260509163505 15 327 1.6 8.0 0.00 0.41 0.33 79 1008.2
20260509163023 15 196 3.2 20.9 0.00 0.41 0.33 81 1008.2
20260509162510 14 6 6.4 20.9 0.00 0.41 0.33 81 1008.2
20260509162003 14 212 4.8 9.7 0.00 0.41 0.33 81 1008.2
20260509161508 14 129 3.2 9.7 0.00 0.41 0.33 82 1008.2
20260509161005 14 227 3.2 8.0 0.00 0.41 0.33 83 1008.2
20260509160504 14 263 3.2 11.3 0.00 0.41 0.33 82 1008.2
20260509160005 14 220 4.8 11.3 0.00 0.41 0.33 85 1008.2
20260509155505 14 338 3.2 9.7 0.00 0.41 0.33 86 1008.2
20260509155005 13 202 3.2 8.0 0.00 0.41 0.33 89 1008.2
20260509154516 13 222 3.2 8.0 0.00 0.41 0.33 89 1008.1
20260509154007 13 228 1.6 4.8 0.00 0.41 0.33 90 1008.1
20260509153505 12 303 1.6 4.8 0.00 0.41 0.33 91 1008.1
20260509153008 12 277 1.6 4.8 0.00 0.41 0.33 90 1008.2
20260509152505 12 304 0.0 4.8 0.00 0.41 0.33 91 1008.1
20260509152006 11 228 0.0 3.2 0.00 0.41 0.33 91 1008.2
20260509151510 11 264 1.6 4.8 0.00 0.41 0.33 90 1008.4
20260509151003 11 222 0.0 6.4 0.00 0.41 0.33 90 1008.3
20260509150507 11 260 1.6 8.0 0.00 0.41 0.33 90 1008.3
20260509150009 11 205 3.2 8.0 0.00 0.41 0.33 90 1008.2
20260509145505 11 271 1.6 6.4 0.00 0.41 0.33 90 1008.3
20260509145002 11 276 0.0 6.4 0.00 0.41 0.33 90 1008.3
20260509144514 11 201 1.6 9.7 0.00 0.41 0.33 90 1008.3
20260509144004 11 272 1.6 11.3 0.00 0.41 0.33 90 1008.3
20260509143506 11 248 3.2 11.3 0.03 0.41 0.33 90 1008.3
20260509143016 11 230 3.2 6.4 0.03 0.41 0.33 90 1008.2
20260509142507 11 268 1.6 8.0 0.03 0.41 0.33 91 1008.1
20260509142008 11 267 3.2 8.0 0.03 0.41 0.33 91 1008.1
20260509141526 11 221 3.2 8.0 0.03 0.41 0.33 91 1008.1
20260509141007 11 326 1.6 9.7 0.03 0.41 0.33 91 1008.2
20260509140506 11 289 1.6 9.7 0.03 0.41 0.33 91 1008.3
20260509140011 11 262 1.6 6.4 0.03 0.41 0.33 91 1008.2
20260509135506 11 114 1.6 6.4 0.05 0.41 0.33 91 1008.2
20260509135009 11 314 1.6 4.8 0.08 0.41 0.33 91 1008.2
20260509134524 11 265 1.6 4.8 0.10 0.41 0.33 91 1008.3
20260509134003 11 318 1.6 14.5 0.13 0.41 0.33 91 1008.3
20260509133506 11 218 3.2 14.5 0.10 0.38 0.30 91 1008.3
20260509133010 11 212 1.6 4.8 0.13 0.38 0.30 91 1008.3
20260509132510 11 160 1.6 8.0 0.13 0.38 0.30 91 1008.4
20260509132010 10 177 3.2 8.0 0.13 0.38 0.30 91 1008.4
20260509131511 10 163 1.6 8.0 0.15 0.38 0.30 91 1008.5
20260509131007 10 264 3.2 8.0 0.15 0.38 0.30 91 1008.4
20260509130506 10 183 1.6 8.0 0.15 0.38 0.30 91 1008.5
20260509130012 10 189 3.2 8.0 0.15 0.38 0.30 91 1008.5
20260509125505 10 247 3.2 8.0 0.13 0.36 0.28 91 1008.4
20260509125007 10 211 1.6 12.9 0.13 0.33 0.25 91 1008.3
20260509124516 10 311 3.2 12.9 0.10 0.30 0.23 91 1008.5
20260509124007 10 245 3.2 6.4 0.08 0.28 0.20 91 1008.6
20260509123506 10 222 1.6 9.7 0.08 0.28 0.20 91 1008.6
20260509123016 10 302 1.6 9.7 0.05 0.25 0.18 91 1008.6
20260509122506 10 290 3.2 6.4 0.08 0.25 0.18 91 1008.5
20260509122007 10 256 3.2 11.3 0.08 0.25 0.18 91 1008.6
20260509121511 10 35 3.2 9.7 0.05 0.23 0.15 90 1008.6
20260509121008 10 343 1.6 6.4 0.08 0.23 0.15 90 1008.7
20260509120507 10 354 1.6 4.8 0.10 0.23 0.15 90 1008.7
20260509120021 10 44 1.6 4.8 0.10 0.23 0.15 90 1008.7
20260509115503 10 271 1.6 4.8 0.13 0.23 0.15 90 1008.7
20260509115008 10 272 1.6 4.8 0.10 0.20 0.13 90 1008.7
20260509114516 10 291 1.6 4.8 0.10 0.20 0.13 90 1008.6
20260509114008 10 274 1.6 4.8 0.10 0.20 0.13 90 1008.5
20260509113507 10 267 1.6 4.8 0.10 0.20 0.13 90 1008.5
20260509113014 10 286 1.6 6.4 0.10 0.20 0.13 90 1008.5
20260509112505 10 283 1.6 6.4 0.08 0.18 0.10 89 1008.5
20260509112013 10 249 1.6 6.4 0.08 0.18 0.10 89 1008.5
20260509111513 10 210 1.6 6.4 0.08 0.18 0.10 89 1008.4
20260509111006 10 268 1.6 6.4 0.05 0.15 0.08 88 1008.4
20260509110502 10 149 1.6 11.3 0.03 0.13 0.05 88 1008.3
20260509110013 10 309 3.2 14.5 0.03 0.13 0.05 87 1008.3
20260509105510 10 212 3.2 14.5 0.00 0.10 0.03 88 1008.2
20260509105008 10 276 1.6 6.4 0.00 0.10 0.03 88 1008.2
20260509104516 10 256 3.2 6.4 0.00 0.10 0.03 87 1008.1
20260509104009 10 295 3.2 8.0 0.00 0.10 0.03 87 1008.1
20260509103508 10 146 1.6 9.7 0.00 0.10 0.03 87 1008.0
20260509103017 10 252 3.2 9.7 0.00 0.10 0.03 87 1008.1
20260509102508 10 312 3.2 8.0 0.00 0.10 0.03 87 1008.1
20260509102007 10 272 3.2 8.0 0.00 0.10 0.03 87 1008.1
20260509101527 10 163 1.6 8.0 0.00 0.10 0.03 87 1008.1
20260509101006 10 255 1.6 9.7 0.00 0.10 0.03 87 1008.2
20260509100505 10 259 3.2 11.3 0.00 0.10 0.03 87 1008.1
20260509100009 10 272 1.6 11.3 0.03 0.10 0.03 88 1008.2
20260509095505 10 228 1.6 6.4 0.03 0.10 0.03 88 1008.2
20260509095007 10 280 1.6 6.4 0.03 0.10 0.03 88 1008.2
20260509094518 10 347 1.6 9.7 0.03 0.10 0.03 88 1008.3
20260509094008 10 114 1.6 9.7 0.03 0.10 0.03 88 1008.3
20260509093508 10 222 1.6 8.0 0.03 0.10 0.03 88 1008.5
20260509093016 10 259 1.6 8.0 0.03 0.10 0.03 89 1008.5
20260509092508 10 222 3.2 6.4 0.03 0.10 0.03 90 1008.6
20260509092007 10 274 1.6 8.0 0.03 0.10 0.03 90 1008.6
20260509091523 10 266 1.6 8.0 0.03 0.10 0.03 91 1008.7
20260509091009 10 158 1.6 8.0 0.03 0.10 0.03 91 1008.8
20260509090509 10 196 3.2 8.0 0.03 0.10 0.03 92 1008.8
20260509090019 9 154 0.0 3.2 0.00 0.08 0.00 92 1008.9
20260509085506 9 232 0.0 3.2 0.00 0.08 0.00 92 1008.9
20260509085009 9 237 0.0 3.2 0.00 0.08 0.00 92 1008.9
20260509084515 9 301 0.0 3.2 0.00 0.08 0.00 92 1008.9
20260509084009 9 301 0.0 0.0 0.00 0.08 0.00 92 1009.0
20260509083507 9 301 0.0 0.0 0.00 0.08 0.00 92 1009.0
20260509083022 9 301 0.0 1.6 0.00 0.08 0.00 92 1009.1
20260509082509 9 301 0.0 1.6 0.00 0.08 0.00 92 1009.1
20260509082009 9 330 0.0 0.0 0.00 0.08 0.00 92 1008.9
20260509081524 9 330 0.0 0.0 0.00 0.08 0.00 91 1008.9
20260509081009 9 330 0.0 0.0 0.00 0.08 0.00 91 1009.0
20260509080508 9 330 0.0 0.0 0.00 0.08 0.00 91 1009.0
20260509080020 9 330 0.0 0.0 0.00 0.08 0.00 91 1008.9
20260509075508 9 330 0.0 0.0 0.00 0.08 0.00 91 1009.0
20260509075007 9 330 0.0 0.0 0.00 0.08 0.00 91 1008.9
20260509074520 9 330 0.0 3.2 0.00 0.08 0.00 91 1008.9
20260509074011 9 330 0.0 4.8 0.00 0.08 0.00 91 1008.9
20260509073506 9 330 1.6 4.8 0.00 0.08 0.00 91 1009.0
20260509073034 9 326 1.6 4.8 0.00 0.08 0.00 91 1009.1
20260509072508 9 330 3.2 4.8 0.00 0.08 0.00 91 1009.0
20260509072009 9 329 3.2 4.8 0.00 0.08 0.00 91 1008.8
20260509071526 9 330 0.0 3.2 0.00 0.08 0.00 91 1008.7
20260509071011 9 321 0.0 3.2 0.00 0.08 0.00 91 1008.7
20260509070513 9 138 0.0 3.2 0.00 0.08 0.00 91 1008.7
20260509070034 9 138 0.0 3.2 0.00 0.08 0.00 91 1008.6
20260509065508 9 138 0.0 3.2 0.00 0.08 0.00 91 1008.6
20260509065010 9 138 0.0 3.2 0.00 0.08 0.00 91 1008.7
20260509064524 9 137 0.0 3.2 0.00 0.08 0.00 91 1008.8
20260509064012 9 136 1.6 3.2 0.00 0.08 0.00 91 1008.9
20260509063506 9 113 1.6 6.4 0.00 0.08 0.00 91 1009.0
20260509063044 9 133 0.0 8.0 0.00 0.08 0.00 91 1009.0
20260509062508 9 133 1.6 8.0 0.00 0.08 0.00 91 1009.0
20260509062009 9 156 4.8 8.0 0.00 0.08 0.00 91 1009.2
20260509061527 9 135 3.2 6.4 0.00 0.08 0.00 91 1009.3
20260509061009 9 113 0.0 4.8 0.00 0.08 0.00 91 1009.4
20260509060506 9 117 1.6 4.8 0.00 0.08 0.00 91 1009.4
20260509060035 9 93 1.6 4.8 0.00 0.08 0.00 90 1009.4
20260509055507 9 101 1.6 4.8 0.00 0.08 0.00 90 1009.4
20260509055009 9 110 1.6 4.8 0.00 0.08 0.00 90 1009.5
20260509054523 9 114 1.6 4.8 0.00 0.08 0.00 90 1009.5
20260509054010 9 105 1.6 4.8 0.00 0.08 0.00 90 1009.5
20260509053510 9 112 1.6 6.4 0.00 0.08 0.00 90 1009.6
20260509053024 9 104 3.2 6.4 0.00 0.08 0.00 90 1009.7
20260509052507 9 108 1.6 4.8 0.00 0.08 0.00 90 1009.8
20260509052007 9 88 1.6 4.8 0.00 0.08 0.00 90 1009.9
20260509051525 9 115 3.2 6.4 0.00 0.08 0.00 90 1010.0
20260509051007 9 109 1.6 8.0 0.00 0.08 0.00 90 1009.9
20260509050508 9 82 3.2 8.0 0.00 0.08 0.00 90 1009.9
20260509050021 9 115 3.2 11.3 0.00 0.08 0.00 90 1009.8
20260509045507 9 89 3.2 11.3 0.00 0.08 0.00 89 1009.9
20260509045013 10 100 3.2 9.7 0.00 0.08 0.00 89 1009.9
20260509044526 10 85 3.2 9.7 0.00 0.08 0.00 89 1009.9
20260509044012 10 96 3.2 9.7 0.00 0.08 0.00 89 1009.9
20260509043509 10 89 4.8 9.7 0.00 0.08 0.00 89 1010.1
20260509043023 10 79 3.2 9.7 0.00 0.08 0.00 89 1010.1
20260509042514 10 93 1.6 6.4 0.00 0.08 0.00 89 1010.2
20260509042012 10 90 3.2 6.4 0.00 0.08 0.00 89 1010.2
20260509041514 10 101 4.8 6.4 0.00 0.08 0.00 89 1010.3
20260509041010 10 97 1.6 6.4 0.00 0.08 0.00 89 1010.3
20260509040509 10 99 3.2 6.4 0.00 0.08 0.00 89 1010.3
20260509040019 10 119 3.2 6.4 0.00 0.08 0.00 88 1010.3
20260509035509 10 104 1.6 4.8 0.00 0.08 0.08 88 1010.5
20260509035009 10 121 3.2 6.4 0.00 0.08 0.08 88 1010.6
20260509034521 10 111 3.2 6.4 0.00 0.08 0.08 88 1010.8
20260509034012 10 116 3.2 4.8 0.00 0.08 0.08 88 1010.7
20260509033514 10 108 3.2 4.8 0.03 0.08 0.08 88 1010.9
20260509033026 10 69 3.2 4.8 0.03 0.08 0.08 88 1011.0
20260509032507 10 45 1.6 4.8 0.03 0.08 0.08 88 1011.1
20260509032016 10 112 1.6 4.8 0.05 0.08 0.08 88 1011.1
20260509031515 10 83 1.6 4.8 0.05 0.08 0.08 88 1011.1
20260509031008 10 79 1.6 4.8 0.05 0.08 0.08 88 1011.2
20260509030508 10 85 1.6 3.2 0.05 0.08 0.08 88 1011.3
20260509030017 10 107 1.6 3.2 0.05 0.08 0.08 88 1011.4
20260509025508 10 83 1.6 3.2 0.05 0.08 0.08 88 1011.4
20260509025009 10 96 0.0 0.0 0.05 0.08 0.08 87 1011.5
20260509024522 10 72 0.0 0.0 0.05 0.08 0.08 87 1011.5
20260509024010 10 72 0.0 3.2 0.05 0.08 0.08 87 1011.6
20260509023508 10 72 0.0 4.8 0.03 0.05 0.05 86 1011.6
20260509023024 10 72 1.6 4.8 0.03 0.05 0.05 86 1011.6
20260509022511 10 7 0.0 3.2 0.03 0.05 0.05 86 1011.6
20260509022011 10 55 0.0 3.2 0.00 0.03 0.03 85 1011.6
20260509021528 10 354 0.0 3.2 0.00 0.03 0.03 85 1011.6
20260509021007 10 330 0.0 3.2 0.00 0.03 0.03 84 1011.5
20260509020508 11 323 1.6 6.4 0.00 0.03 0.03 83 1011.5
20260509020032 11 121 3.2 6.4 0.03 0.03 0.03 83 1011.4
20260509015508 11 19 4.8 6.4 0.03 0.03 0.03 83 1011.4
20260509015008 11 91 1.6 3.2 0.03 0.03 0.03 82 1011.2
20260509014537 11 357 0.0 3.2 0.03 0.03 0.03 81 1011.2
20260509014008 11 119 0.0 4.8 0.03 0.03 0.03 81 1011.2
20260509013508 11 114 0.0 4.8 0.03 0.03 0.03 80 1011.1
20260509013035 11 118 1.6 6.4 0.03 0.03 0.03 80 1010.9
20260509012510 11 131 3.2 6.4 0.03 0.03 0.03 80 1010.7
20260509012009 11 101 3.2 4.8 0.03 0.03 0.03 79 1010.5